Tracking 19792 objects as of 15-Jul-2019
HD Live streaming from Space Station
objects crossing your sky now

CZ-4 DEB

Track CZ-4 DEB now!
10-day predictions


NORAD ID: 31131
Int'l Code: 2003-049D
Perigee: 703.1 km
Apogee: 895.6 km
Inclination: 98.7 °
Period: 100.7 minutes
Semi major axis: 7170 km
RCS: 0.0196 m2 (small)
Launch date: October 21, 2003
Source: People's Republic of China (PRC)
Launch site: Taiyaun Space Center, China (TSC)

Note: This is SATELLITE DEBRIS
aabbcc
Your satellite tracking list
Your tracking list is empty




NASA's NSSDC Master Catalog

Two Line Element Set (TLE):
1 31131U 03049D   19195.81405678 +.00000086 +00000-0 +47047-4 0  9999
2 31131 098.6834 148.6972 0134174 296.4897 092.2543 14.29858012637518
Source of the keplerian elements: AFSPC